Satellite-Ground Cal/Val Site Overpasses Predictions

Prediction of Satellite NPP Overpassing Cal/Val Site: Antarctic Dome C

Ground Cal/Val Site Location: Latitude: -75.10, Longitude: 123.35; Satellite-Ground Site NADIR distance within 100 km.

Table of predicted overpasses for the next 14.0 days since TLE Epoch: 3/25/2023
Interval Starting Time Ending Time Minimum Distance Time Minimum Distance (km)
1 03/25/2023 14:44:33 03/25/2023 14:44:59 03/25/2023 14:44:46 48.27
2 03/26/2023 07:46:15 03/26/2023 07:46:37 03/26/2023 07:46:26 66.36
3 03/27/2023 07:27:25 03/27/2023 07:27:51 03/27/2023 07:27:38 41.57
4 03/29/2023 15:09:55 03/29/2023 15:09:59 03/29/2023 15:09:57 98.59
5 03/30/2023 14:50:53 03/30/2023 14:51:22 03/30/2023 14:51:08 12.71
6 04/01/2023 07:33:44 04/01/2023 07:34:13 04/01/2023 07:33:59 5.21
7 04/04/2023 14:57:14 04/04/2023 14:57:43 04/04/2023 14:57:29 23.88
8 04/05/2023 14:38:32 04/05/2023 14:38:48 04/05/2023 14:38:40 83.11
9 04/06/2023 07:40:05 04/06/2023 07:40:33 04/06/2023 07:40:19 31.16
